GSAT0221 (GALILEO 25)

Last updated on Tue Sep 16 2025 00:02:34 GMT+0000 (Coordinated Universal Time)

1 43564U 18060A 25257.37002056 -.00000102 00000+0 00000+0 0 9993 2 43564 57.2495 349.2331 0007557 265.8316 94.1169 1.70475731 44469
UTC large
Height (km)
Speed (km/s)
/
Latitude / Longitude
Inclination (degrees)
Orbital Period (minutes)
Azimuth
Elevation
Range (km)
Doppler Factor

Next 0 passes for location: London (51.5072 / 0.1276)

Sorry there are no passes over London.